COSMOS 1275 DEB, 18637

Orbit data source: Space-Track

COSMOS 1275 DEB, 18637 is space debris in LEO originally from a launch on Thu, 04 Jun 1981 UTC launched from the Plesetsk Missile And Space Complex (PKMTR). Debris objects in space refer to the collection of defunct objects orbiting the Earth. Examples of debris include non-operational satellites, rocket bodies, and fragments generated from explosions, collisions, or faulty payload assembly.

Loading next visibility...
Identifier
18637, 1981-053LX
Orbit
LEO
Country
Flag of CISCIS
Related business
Manufacturer
Unknown
Mission
Spacecraft
Bus & Motor
Unknown
Mass
Unknown
Launch date (UTC)
1981-06-04 (45 years ago)
Launch vehicle
Unknown
Launch site
Plesetsk Missile And Space Complex (PKMTR)
Object type
Payload
Rocket body
Debris
Shape & HBR
Unknown shape, 0.1 m
Radar Cross Section
Medium (>0.1 m² and <1 m²)

Expand to show TLE details & history
Last TLE update: 3 days ago

TLE from 3 days ago
0 COSMOS 1275 DEB
1 18637U 81053LX  26218.99651983  .00001875  00000-0  76281-3 0  9999
2 18637  82.9609 223.7491 0046248 339.2697  20.6610 14.26521702104451
Epoch: 2026-08-06T23:54Z
TLE epoch observation values (Epoch: 2026-08-06T23:54:59.313Z)
Latitude
-0.00002°
Longitude
-90.5266°
Altitude
775.289 km
Speed
7.482 km/s
True Right ascension
14h 54m 59s
True Declination
0° 00' 00"
Sunlit
Object was in daylight at epoch
Visualization orbit readout
Latitude
Unknown
Longitude
Unknown
Altitude
Unknown
Speed
Unknown
Apparent Right ascension
Unknown
Apparent Declination
Unknown
Sunlit
N/A
Visualization observer readout
Local Sidereal Time
16:44:14
Azimuth
Unknown
Elevation
Unknown
Doppler factor
Unknown
Orbital elements
Apogee altitude
833.658 km
Perigee altitude
767.258 km
Semi-major axis
7,178.595 km
Eccentricity
0.00462
Inclination
82.9609°
RAAN
223.7491°
Arg. of periapsis
339.2697°
True anomaly
20.84901°
Mean anomaly
20.661°
Eccentric anomaly
20.7549°
Mean motion
3.56849 °/min
Orbital period
100.88 mins
BSTAR
0.00076281
Loading maneuver chart data...
Computing Atmospheric mass density...
Loading historical data...
Loading historical data...
Loading historical data...
Loading historical data...
Loading historical data...
Loading historical data...
Loading historical data...

Documentation

Showing up to 5 results
|